This is the latest recevied weather packets stored in our database for station/object K8BCO. If no packets are shown the sender has not sent any weather packets the latest 10 day(s).
| Time | Temp. | Humidity | Pressure | Rain* | Wind** | Luminosity | Snow |
|---|---|---|---|---|---|---|---|
| 1777818319 | 13.89° C | 62% | 1003.2 hPa | 0 mm | - | 358 W/m² | - |
| 1777817717 | 13.89° C | 67% | 1003.3 hPa | 0 mm | - | 245 W/m² | - |
| 1777817116 | 13.89° C | 66% | 1003.2 hPa | 0 mm | - | 306 W/m² | - |
| 1777816517 | 13.33° C | 67% | 1003.3 hPa | 0 mm | - | 384 W/m² | - |
| 1777815916 | 12.78° C | 71% | 1003.4 hPa | 0 mm | - | 389 W/m² | - |
| 1777815316 | 12.22° C | 71% | 1003.5 hPa | 0 mm | - | 420 W/m² | - |
| 1777814718 | 11.11° C | 76% | 1003.6 hPa | 0 mm | - | 441 W/m² | - |
| 1777814117 | 10.56° C | 78% | 1003.7 hPa | 0 mm | - | 354 W/m² | - |
| 1777813517 | 10.56° C | 76% | 1003.9 hPa | 0 mm | - | 180 W/m² | - |
| 1777812917 | 9.44° C | 81% | 1004 hPa | 0 mm | - | 181 W/m² | - |
| 1777812317 | 8.33° C | 86% | 1003.9 hPa | 0 mm | - | 278 W/m² | - |
| 1777811717 | 6.67° C | 91% | 1004.1 hPa | 0 mm | - | 150 W/m² | - |
| 1777811116 | 5.56° C | 95% | 1004.2 hPa | 0 mm | - | 194 W/m² | - |
| 1777810517 | 5° C | 97% | 1004.3 hPa | 0 mm | - | 110 W/m² | - |
| 1777809916 | 4.44° C | 97% | 1004.5 hPa | 0 mm | - | 65 W/m² | - |
| 1777809317 | 4.44° C | 97% | 1004.5 hPa | 0 mm | - | 40 W/m² | - |
| 1777808717 | 3.89° C | 97% | 1004.6 hPa | 0 mm | - | 26 W/m² | - |
| 1777808119 | 3.89° C | 97% | 1004.6 hPa | 0 mm | - | 21 W/m² | - |
| 1777807517 | 4.44° C | 97% | 1004.6 hPa | 0 mm | - | 12 W/m² | - |
| 1777806917 | 4.44° C | 97% | 1004.6 hPa | 0 mm | - | 6 W/m² | - |
| 1777806319 | 3.89° C | 97% | 1004.6 hPa | 0.25 mm | - | 2 W/m² | - |
| 1777805718 | 3.89° C | 97% | 1004.6 hPa | 0.51 mm | - | 2 W/m² | - |
| 1777805118 | 3.89° C | 97% | 1004.6 hPa | 0.51 mm | - | 2 W/m² | - |
| 1777804520 | 3.89° C | 96% | 1004.5 hPa | 0.51 mm | - | 1 W/m² | - |
| 1777803919 | 3.89° C | 96% | 1004.9 hPa | 0.76 mm | - | 0 W/m² | - |
* Rain latest hour (hover to see other rain measurements)
** Current wind speed in m/s (hover to see current wind gust speed)